Location: T�chigga el Be�da
(16.4766°N, 9.3887°W)
Time: 12:51:08
(UTC+00:00)

ATLAS CENTAUR Rocket - Pass Details

Date: 27 February 2020
Orbit: 658 x 36588 km, 28.5° (Epoch: 29 March)

Event Time Altitude Azimuth Distance (km) Brightness Sun altitude
Rises 19:45:13 0° 259° (W) 2,967 6.9 -15.4°
Reaches altitude 10° 19:47:00 10° 264° (W) 2,098 5.7 -15.9°
Maximum altitude 19:50:48 57° 345° (NNW) 1,078 2.8 -16.8°
Enters shadow 19:56:52 19° 60° (ENE) 3,510 4.8 -18.2°
